Location: Claremont
(35.7250°N, 81.1500°W)
Time: 18:58:01
(UTC-05:00)

Daily predictions for brighter satellites

Satellite Brightness Start Highest point End
(mag) Time Altitude Azimuth Time Altitude Azimuth Time Altitude Azimuth
Nadezhda 1 Rocket 4.3 17:50:19 10° SSW 17:56:28 74° W 18:02:47 10° N
BREEZE-M R/B 3.6 17:53:45 10° WSW 17:57:24 73° NNW 18:08:18 10° NE
SMAP 3.1 17:56:50 10° SSE 18:01:30 89° ENE 18:06:10 10° NNW
Cosmos 1503 Rocket 4.2 17:57:44 10° N 18:02:57 55° ENE 18:08:11 10° SSE
Meteor 1-21 Rocket 4.5 17:58:08 10° S 18:03:48 55° E 18:09:34 10° NNE
ERS-2 3.9 18:02:39 10° E 18:04:26 13° ENE 18:06:11 10° NE
Cosmos 1842 Rocket 3.6 18:02:57 10° N 18:07:24 86° E 18:11:48 10° S
Cosmos 2341 Rocket 4.1 18:04:02 10° N 18:10:13 59° E 18:16:24 10° SSE
Cosmos 1908 3.2 18:06:46 10° N 18:10:39 81° E 18:14:29 10° S
Cosmos 1076 Rocket 4.0 18:10:48 10° SSE 18:14:52 39° E 18:18:56 10° NNE
Cosmos 1992 Rocket 4.0 18:10:09 10° SSW 18:15:21 89° E 18:20:35 10° NNE
Meteor 1-28 Rocket 4.4 18:12:42 10° N 18:16:20 44° WNW 18:19:57 10° SSW
FENGYUN 3A 4.0 18:12:15 10° SE 18:17:12 40° ENE 18:22:10 10° N
NOSS 2-1 (C) 4.4 18:14:47 10° SW 18:18:14 38° NW 18:21:56 10° NNE
USA 116 4.2 18:14:04 10° N 18:18:15 77° WNW 18:22:58 10° SSW
Cosmos 1400 Rocket 2.9 18:15:01 10° S 18:18:56 56° E 18:22:56 10° NNE
KORONAS-FOTON 3.9 18:16:10 10° S 18:19:59 77° W 18:23:48 10° N
Cosmos 2084 3.1 18:16:17 10° NNW 18:20:04 62° ENE 18:23:56 10° SE
H-2A R/B 4.3 18:19:20 10° ESE 18:21:38 16° ENE 18:23:57 10° NNE
Okean 3 Rocket 3.8 18:17:55 10° S 18:22:19 53° E 18:26:44 10° NNE
Cosmos 1766 Rocket 4.3 18:24:15 10° SSE 18:28:01 30° E 18:31:47 10° NNE
OAO 3 Rocket 3.3 18:23:52 10° WSW 18:28:32 70° SSE 18:32:27 15° E
Cosmos 2181 Rocket 4.1 18:26:36 10° S 18:33:02 89° E 18:39:31 10° N
Cosmos 1943 3.7 18:28:40 10° SSW 18:34:13 62° WNW 18:39:48 10° NNE
SKYMED 2 3.7 18:34:29 10° N 18:38:50 76° WNW 18:43:09 10° SSW
MONITOR-E 4.0 18:35:57 10° SSE 18:38:58 69° E 18:42:01 10° N
Cosmos 968 Rocket 3.6 18:34:21 10° N 18:39:22 50° ENE 18:44:19 10° SE
METEOR-M 4.4 18:35:05 10° S 18:40:25 74° WSW 18:45:47 10° NNW
ATLAS 2AS CENTAUR R/B 2.9 18:32:50 10° NNW 18:40:45 78° ENE 18:47:56 10° SE
Lacrosse 5 rocket 4.4 18:39:52 10° WNW 18:43:16 21° WSW 18:46:45 10° S
Cosmos 1726 2.4 18:39:40 10° NNW 18:43:19 69° W 18:46:57 10° S
ALOS 2.2 18:39:50 10° SSE 18:44:29 78° ENE 18:49:10 10° N
YAOGAN 1 3.2 18:41:19 10° S 18:45:34 58° W 18:49:52 10° NNW
CZ-4 R/B 3.2 18:42:26 10° SSW 18:46:18 37° W 18:50:14 10° NNW
DMSP B5D1-3 4.4 18:42:09 10° NNE 18:47:14 71° ESE 18:52:18 10° S
EO 1 Del DPAF 3.2 18:45:15 10° NNE 18:49:06 89° ESE 18:52:55 10° SSW
Cosmos 1703 4.2 18:50:19 10° SSE 18:53:22 27° E 18:53:22 27° E
Cosmos 2218 Rocket 3.9 18:55:24 10° N 19:01:35 82° E 19:07:43 10° S
SL-8 Rocket 4.1 18:56:25 10° N 19:02:36 81° W 19:08:49 10° S
NOSS 3-4 (A) 4.4 18:56:34 10° NNW 19:02:56 35° NE 19:05:58 26° E
NOSS 3-4 (C) 4.4 18:56:41 10° NNW 19:03:02 34° NE 19:05:59 26° E
Thor Agena Rocket 3.9 19:02:12 23° NE 19:05:04 41° E 19:09:57 10° S
Cosmos 2263 4.3 18:59:18 10° NNW 19:05:05 79° WSW 19:10:47 10° SSE
SL-14 R/B 4.4 19:02:58 10° SSW 19:06:50 46° W 19:10:40 10° N
Cosmos 2369 Rocket 3.5 19:12:14 10° NW 19:17:32 42° WSW 19:22:50 10° S
SL-08 R/B 4.4 19:11:20 10° N 19:17:33 89° E 19:23:40 10° S
SPOT 3 Rocket 4.0 19:13:31 10° S 19:18:35 62° WSW 19:23:42 10° NNW
TSX-5 3.8 19:19:05 10° SW 19:22:09 53° WNW 19:22:33 49° NNW
Cosmos 1315 Rocket 3.8 19:18:35 10° SSW 19:22:23 46° W 19:26:06 10° N
Cosmos 1408 Rocket 3.8 19:18:30 10° SSW 19:22:46 67° W 19:26:39 12° N
Cosmos 1300 4.2 19:19:28 10° NNW 19:23:01 38° W 19:26:34 10° SSW
Cosmos 1626 2.3 19:20:12 10° SSW 19:23:52 68° W 19:25:21 34° N
USA 81 4.0 19:25:22 10° S 19:30:32 60° E 19:31:24 52° NE
GEOS 3 Rocket 3.5 19:29:52 38° SE 19:31:53 72° NE 19:37:14 10° NNW
Meteor 1-27 4.1 19:28:06 10° N 19:33:48 72° E 19:39:33 10° SSE
Meteor 1-11 4.3 19:28:39 10° SSW 19:34:13 78° W 19:39:51 10° N
Cosmos 44 3.3 19:31:53 10° SW 19:36:08 62° WNW 19:36:53 52° NNW
ERS-2 3.9 19:34:24 10° SSW 19:37:44 33° W 19:41:07 10° NNW
Cosmos 1656 Rocket 3.4 19:34:01 10° NNW 19:39:31 76° ENE 19:41:01 49° SE
Cosmos 1943 Rocket 3.4 19:35:05 10° NW 19:40:16 40° WSW 19:45:23 10° S
Cosmos 1743 Rocket 3.9 19:42:52 10° S 19:46:31 60° SSW 19:46:31 60° SSW
Cosmos 1777 Rocket 3.9 19:43:28 10° NNW 19:48:43 90° ENE 19:49:05 78° SSE
Meteor 2-15 4.3 19:44:34 10° S 19:50:40 75° E 19:51:22 67° NE
Cosmos 2151 4.1 19:48:34 10° SSW 19:51:08 36° SSW 19:51:08 36° SSW
Cosmos 44 Rocket 3.7 19:48:20 10° SW 19:52:54 55° WNW 19:53:08 54° NW
COSMOS 2406 3.0 19:47:57 10° SSW 19:53:42 86° ESE 19:53:49 85° ENE
Nadezhda 3 Rocket 4.1 19:48:54 10° S 19:55:11 76° W 20:01:33 10° N
Cosmos 2058 4.1 19:51:35 10° SSW 19:54:14 36° SW 19:54:14 36° SW
Cosmos 2098 Rocket 4.1 19:55:10 10° NNW 20:00:13 62° W 20:06:31 10° S
OAO 3 Rocket 4.4 20:07:16 10° W 20:10:16 39° W 20:10:16 39° W
